User: anonymous
Location: Mason Neck State Park
(38.6428°N, 77.1981°W)
Time: 04:24:59
(UTC-04:00)
Language:

Cosmos 1400 Rocket - Orbit

View from above orbital plane
View from above orbital plane
View from above satellite
View from above satellite

Ground track
Ground track

The orbit data is extracted from the following two-line orbital elements,

1 13403U 82079B   14274.77415690  .00002272  00000-0  16149-3 0  6842
2 13403 081.1714 321.0752 0034686 294.8352 064.9264 15.03836305747839
Epoch (UTC): 01 October 2014 18:34:47
Eccentricity: 0.0034686
inclination: 81.1714°
perigee height: 531 km
apogee height: 579 km
right ascension of ascending node: 321.0752°
argument of perigee: 294.8352°
revolutions per day: 15.03836305
mean anomaly at epoch: 64.9264°
orbit number at epoch: 74783

The dashed part of the orbit path shows where the satellite is in the earth's shadow,  

DLR